Weather History for Augusta, ME

Change the Weather History Date:

Sunday, August 18, 2013

  Actual Average Record
Temperature  
Mean Temperature 63 °F 68 °F  
Max Temperature 75 °F 78 °F 91 °F (2002)
Min Temperature 51 °F 59 °F 51 °F (2005)
Degree Days  
Heating Degree Days 2 1  
Month to date heating degree days 7  
Since 1 June heating degree days 117  
Since 1 July heating degree days 23  
Cooling Degree Days 0 4  
Month to date cooling degree days 84  
Year to date cooling degree days 314  
Since 1 June cooling degree days 305  
Growing Degree Days 13 (Base 50)    
Moisture  
Dew Point 55 °F    
Average Humidity 82    
Maximum Humidity 100    
Minimum Humidity 49    
Precipitation  
Precipitation 0.00 in 0.11 in 0.19 in (2007)
Month to date precipitation 1.99  
Year to date precipitation 24.86  
Sea Level Pressure  
Sea Level Pressure 30.22 in    
Wind  
Wind Speed 2 mph (West)    
Max Wind Speed 7 mph    
Max Gust Speed -    
Visibility 8 miles    
Events      
T = Trace of Precipitation, MM = Missing Value Source: NWS Daily Summary

Daily Weather History Graph

Daily Weather History Graph

Search for Another Location

Airport:

Trip Planner

Search our weather history database for the weather conditions in past years. The results will help you decide how hot, cold, wet, or windy it might be!

Date:

Astronomy

Aug. 18, 2013 Rise Set
Actual Time 5:46 AM EDT 7:39 PM EDT
Civil Twilight 5:14 AM EDT 8:10 PM EDT
Nautical Twilight 4:36 AM EDT 8:48 PM EDT
Astronomical Twilight 3:55 AM EDT 9:29 PM EDT
Moon 5:44 PM EDT (8/18) 2:48 AM EDT (8/18)
Length of Visible Light 14h 55m
Length of Day
13h 52m
Waxing Gibbous, 92% of the Moon is Illuminated
Aug 18
Waxing Gibbous
Aug 20
Full
Aug 28
Last Quarter
Sep 5
New
Sep 12
First Quarter

Hourly Weather History & Observations

Time (EDT) Temp. Dew Point Humidity Pressure Visibility Wind Dir Wind Speed Gust Speed Precip Events Conditions
12:53 AM 57.9 °F 55.0 °F 90% 30.27 in 10.0 mi Calm Calm - N/A   Clear
1:53 AM 57.0 °F 55.0 °F 93% 30.27 in 10.0 mi SE 3.5 mph - N/A   Clear
2:53 AM 57.9 °F 55.0 °F 90% 30.27 in 10.0 mi Calm Calm - N/A   Clear
3:53 AM 54.0 °F 52.0 °F 93% 30.26 in 10.0 mi Calm Calm - N/A   Clear
4:48 AM 53.6 °F 51.8 °F 94% 30.27 in 8.0 mi Calm Calm - N/A   Scattered Clouds
4:53 AM 54.0 °F 53.1 °F 97% 30.27 in 8.0 mi Calm Calm - N/A   Scattered Clouds
5:15 AM 53.6 °F 51.8 °F 94% 30.27 in 1.8 mi NNW 3.5 mph - N/A   Partly Cloudy
5:18 AM 53.6 °F 51.8 °F 94% 30.27 in 0.8 mi NNW 4.6 mph - N/A   Mist
5:30 AM 51.8 °F 51.8 °F 100% 30.27 in 2.0 mi Calm Calm - N/A   Scattered Clouds
5:37 AM 53.6 °F 51.8 °F 94% 30.27 in 8.0 mi Calm Calm - N/A   Partly Cloudy
5:53 AM 52.0 °F 52.0 °F 100% 30.27 in 1.2 mi NNE 3.5 mph - N/A   Partly Cloudy
5:55 AM 51.8 °F 51.8 °F 100% 30.27 in 0.8 mi Calm Calm - N/A   Mist
6:03 AM 53.6 °F 51.8 °F 94% 30.28 in 1.2 mi North 3.5 mph - N/A   Scattered Clouds
6:11 AM 53.6 °F 53.6 °F 100% 30.27 in 2.0 mi NNW 3.5 mph - N/A   Scattered Clouds
6:19 AM 51.8 °F 51.8 °F 100% 30.27 in 4.0 mi NW 3.5 mph - N/A   Scattered Clouds
6:53 AM 55.0 °F 53.1 °F 93% 30.28 in 10.0 mi NNW 3.5 mph - N/A   Clear
7:53 AM 57.0 °F 55.0 °F 93% 30.28 in 10.0 mi Calm Calm - N/A   Clear
8:53 AM 63.0 °F 55.9 °F 78% 30.27 in 10.0 mi Calm Calm - N/A   Clear
9:53 AM 68.0 °F 54.0 °F 61% 30.27 in 10.0 mi Calm Calm - N/A   Clear
10:53 AM 71.1 °F 53.1 °F 53% 30.25 in 10.0 mi Calm Calm - N/A   Clear
11:53 AM 73.0 °F 54.0 °F 51% 30.25 in 10.0 mi Variable 3.5 mph - N/A   Clear
12:53 PM 73.0 °F 53.1 °F 49% 30.22 in 10.0 mi SW 6.9 mph - N/A   Clear
1:53 PM 75.0 °F 55.9 °F 51% 30.20 in 10.0 mi SW 4.6 mph - N/A   Clear
2:53 PM 75.0 °F 55.9 °F 51% 30.17 in 10.0 mi WSW 5.8 mph - N/A   Clear
3:53 PM 73.9 °F 57.9 °F 57% 30.15 in 10.0 mi WSW 6.9 mph - N/A   Clear
4:53 PM 75.0 °F 60.1 °F 60% 30.13 in 10.0 mi SSW 4.6 mph - N/A   Clear
5:53 PM 72.0 °F 61.0 °F 68% 30.11 in 10.0 mi Variable 5.8 mph - N/A   Clear
6:53 PM 69.1 °F 60.1 °F 73% 30.10 in 10.0 mi Variable 3.5 mph - 0.00 in   Clear
7:53 PM 66.9 °F 60.1 °F 79% 30.09 in 10.0 mi South 3.5 mph - N/A   Clear
8:53 PM 64.9 °F 60.1 °F 84% 30.09 in 10.0 mi South 3.5 mph - N/A   Clear
9:53 PM 63.0 °F 60.1 °F 90% 30.08 in 10.0 mi Variable 3.5 mph - N/A   Clear
10:53 PM 63.0 °F 61.0 °F 93% 30.07 in 10.0 mi SSW 3.5 mph - N/A   Clear
11:53 PM 62.1 °F 60.1 °F 93% 30.05 in 8.0 mi Calm Calm - N/A   Clear